Regional Weather Roundup
Issued by NWS Newport/Morehead, NC

Home | Current Version | Previous Version | Text Only | Print | Product List | Glossary On
Versions: 1 2 3 4 5 6 7 8 9 10 11 12 13 14 15 16 17 18 19 20 21 22 23 24 25 26 27 28 29 30 31 32 33 34 35 36 37 38 39 40 41 42 43 44 45 46 47 48 49 50
000
ASUS42 KMHX 272025
RWRMHX
WEATHER ROUNDUP FOR EASTERN NORTH CAROLINA
NATIONAL WEATHER SERVICE NEWPORT/MOREHEAD CITY NC
300 PM EST MON FEB 27 2017

NOTE: "FAIR" INDICATES FEW OR NO CLOUDS BELOW 12,000 FEET
WITH NO SIGNIFICANT WEATHER AND/OR OBSTRUCTIONS TO VISIBILITY

NCZ015>017-031-032-045>047-102-103-272100-
NORTH COAST

CITY           SKY/WX    TMP DP  RH WIND       PRES   REMARKS
EDENTON        SUNNY     66  37  34 SE7       30.38F
ELIZABETH CITY SUNNY     65  33  30 VRB7      30.40S
KITTY HAWK     NOT AVBL
MANTEO         PTSUNNY   61  40  46 SE3       30.41S

$$

NCZ045>047-081-094-103-104-272100-
CENTRAL COAST

CITY           SKY/WX    TMP DP  RH WIND       PRES   REMARKS
FRISCO         PTSUNNY   64  45  49 VRB6      30.40F

$$

NCZ095-097-098-100-101-272100-
SOUTHERN COAST

CITY           SKY/WX    TMP DP  RH WIND       PRES   REMARKS
BEAUFORT       MOSUNNY   67  50  54 SE8       30.37F
CEDAR ISLAND   NOT AVBL
JACKSONVILLE   CLOUDY    67  49  52 SE13      30.36F
PINEY ISLAND   PTCLDY   N/A N/A N/A E9        30.39F
WILMINGTON     CLOUDY    66  48  52 SE8       30.37F


$$

NCZ011>013-027>030-043-044-078>080-089-090>093-098-272100-
COASTAL PLAIN

CITY           SKY/WX    TMP DP  RH WIND       PRES   REMARKS
AHOSKIE          N/A     64  28  25 SW6       30.37F
CLINTON        MOSUNNY   67  46  46 S5        30.38S
ELIZABETHTOWN  MOSUNNY   68  46  45 S8        30.36F
GOLDSBORO      MOSUNNY   68  36  30 S7G17     30.36S
GREENVILLE     SUNNY     68  36  30 S9        30.38R
HAVELOCK       PTSUNNY   66  42  41 E9        30.39F
KENANSVILLE    MOSUNNY   66  45  45 S5        30.37S
KINSTON        PTSUNNY   68  39  34 S8G16     30.37R
NEW BERN       CLOUDY    65  44  46 E8        30.39F
RICHLANDS      CLOUDY    66  49  54 S9        30.38S
ROCKY MOUNT    SUNNY     66  26  22 SW8       30.38S
WASHINGTON     SUNNY     66  39  36 S9        30.37F
WHITEVILLE     PTSUNNY   68  46  44 SE9       30.36S

$$

AMZ130-135-150-152-154-156-158-170-250-252-270-ANZ085-086-088-633-658-670-272100-
MARINE OBSERVATIONS

STATION/POSITION TIME  TEMP    WIND        PRES    WAVE   SWELL
                       AIR SEA DIR/SP/G            HT/PER HT/PER
                 (UTC) (F)     (DEG/KT/KT) (MB)    (FT/S) (FT/S)
CHESAPEAKE LIGHT NOT AVBL
64 E VA BEACH    1950   51 51   50/  6/  6 1029.6    2/ 8   2/ 8
DUCK             2000   55 50  140/  6/  8 1029.0
2 E DUCK         2000      51                N/A     2/ 8
OREGON INLET     2000   55 54   40/  5/  6 1029.7
13E OREGON INLT  NOT AVBL
HATTERAS CG      2000   59 61   40/  6/ 10 1029.2
DIAMOND BUOY     1950   64 71  140/ 12/ 14 1029.5    4/ 8   3/ 8
CAPE LOOKOUT     2000   59      50/ 13/ 14 1028.4
BEAUFORT LAB     2000   64 61  130/  7/  9 1027.4
30 SE NEW RVR IN 2008   66     160/ 10/ 12 1028.3
30 SE NEW RVR IN 2013      65                N/A     4/ 8
27 SE WRIGHTSVLE 2008   65 62  150/  6/ 10 1027.8
5 SE WRIGHTSVLE  2008   59 58   50/  8/ 12 1028.4
225 S CAPE HAT   1950   67 70  100/ 12/ 16 1028.0    4/ 8   3/ 8
41 SE CHARLESTON 1950   69 69  140/ 12/ 14 1026.0    4/ 4   2/ 8

$$



USA.gov is the U.S. government's official web portal to all federal, state and local government web resources and services.